Location: Maiden
(35.5760°N, 81.2120°W)
Time: 03:42:58
(UTC-04:00)

Vanguard 2 - Pass Details

Date: 12 August 2020
Orbit: 553 x 2937 km, 32.9° (Epoch: 20 September)

Event Time Altitude Azimuth Distance (km) Brightness Sun altitude
Rises 02:47:09 0° 282° (WNW) 5,773 11.9 -36.4°
Reaches altitude 10° 02:51:50 10° 276° (W) 4,371 11.2 -36.0°
Enters shadow 02:51:52 10° 276° (W) 4,359 11.2 -36.0°
Maximum altitude 03:01:36 37° 214° (SW) 1,974 - -35.1°
Drops below altitude 10° 03:07:47 10° 149° (SSE) 2,752 - -34.5°
Sets 03:10:06 0° 140° (SE) 3,462 - -34.3°
